This is the latest recevied weather packets stored in our database for station/object K5FEP. If no packets are shown the sender has not sent any weather packets the latest 10 day(s).
| Time | Temp. | Humidity | Pressure | Rain* | Wind** | Luminosity | Snow |
|---|---|---|---|---|---|---|---|
| 1777786292 | 6.11° C | 69% | 1014.5 hPa | 0 mm | - | 0 W/m² | - |
| 1777785987 | 6.11° C | 69% | 1014.4 hPa | 0 mm | - | 0 W/m² | - |
| 1777785684 | 6.67° C | 69% | 1014.3 hPa | 0 mm | - | 0 W/m² | - |
| 1777785379 | 6.67° C | 67% | 1014.4 hPa | 0 mm | - | 0 W/m² | - |
| 1777785078 | 7.22° C | 65% | 1014.4 hPa | 0 mm | - | 0 W/m² | - |
| 1777784774 | 7.22° C | 65% | 1014.5 hPa | 0 mm | - | 0 W/m² | - |
| 1777784471 | 7.22° C | 65% | 1014.5 hPa | 0 mm | - | 0 W/m² | - |
| 1777784168 | 7.22° C | 65% | 1014.5 hPa | 0 mm | - | 0 W/m² | - |
| 1777783865 | 7.22° C | 66% | 1014.4 hPa | 0 mm | - | 0 W/m² | - |
| 1777783561 | 6.67° C | 69% | 1014.2 hPa | 0 mm | - | 0 W/m² | - |
| 1777783259 | 6.67° C | 71% | 1014.2 hPa | 0 mm | - | 0 W/m² | - |
| 1777782955 | 6.67° C | 71% | 1014.2 hPa | 0 mm | - | 0 W/m² | - |
| 1777782652 | 6.11° C | 71% | 1014.3 hPa | 0 mm | - | 0 W/m² | - |
| 1777782349 | 6.67° C | 76% | 1014.2 hPa | 0 mm | - | 0 W/m² | - |
| 1777782045 | 6.67° C | 75% | 1014.1 hPa | 0 mm | - | 0 W/m² | - |
| 1777781742 | 7.22° C | 66% | 1014.1 hPa | 0 mm | - | 0 W/m² | - |
| 1777781440 | 7.22° C | 68% | 1013.8 hPa | 0 mm | - | 0 W/m² | - |
| 1777781137 | 7.78° C | 66% | 1014 hPa | 0 mm | - | 0 W/m² | - |
| 1777780834 | 7.78° C | 67% | 1013.9 hPa | 0 mm | - | 0 W/m² | - |
| 1777780531 | 7.78° C | 65% | 1013.8 hPa | 0 mm | - | 0 W/m² | - |
| 1777780229 | 7.78° C | 67% | 1013.9 hPa | 0 mm | - | 0 W/m² | - |
| 1777779925 | 7.78° C | 64% | 1013.7 hPa | 0 mm | - | 0 W/m² | - |
| 1777779622 | 7.78° C | 70% | 1013.8 hPa | 0 mm | - | 0 W/m² | - |
| 1777779320 | 7.22° C | 71% | 1013.8 hPa | 0 mm | - | 0 W/m² | - |
| 1777779018 | 7.22° C | 77% | 1013.9 hPa | 0 mm | - | 0 W/m² | - |
* Rain latest hour (hover to see other rain measurements)
** Current wind speed in m/s (hover to see current wind gust speed)